Location: Unspecified
(42.9300°N, 71.1866°W)
Time: 02:57:12
(UTC-04:00)

Cosmos 1674 - Visible Passes

Search period start: 22 July 2017 00:00
Search period end: 01 August 2017 00:00
Orbit: 498 x 523 km, 82.5° (Epoch: 21 July)

Date Brightness Start Highest point End Pass type
(mag) Time Alt. Az. Time Alt. Az. Time Alt. Az.
22 Jul 6.1 03:52:23 10° NE 03:53:22 11° ENE 03:54:22 10° E visible
25 Jul 3.1 04:35:40 10° N 04:39:30 67° E 04:43:20 10° SSE visible
26 Jul 3.6 04:19:05 10° N 04:22:51 51° E 04:26:37 10° SSE visible
27 Jul 4.1 04:02:33 10° N 04:06:12 40° ENE 04:09:51 10° SSE visible
28 Jul 4.5 03:46:03 10° NNE 03:49:32 32° ENE 03:53:01 10° SE visible
29 Jul 4.9 03:29:36 10° NNE 03:32:51 25° ENE 03:36:06 10° SE visible
30 Jul 5.2 03:13:13 10° NNE 03:16:10 20° ENE 03:19:06 10° ESE visible
30 Jul 3.8 04:48:28 10° NNW 04:51:45 27° W 04:55:02 10° SSW visible
31 Jul 5.5 02:56:54 10° NNE 02:59:27 17° ENE 03:01:59 10° ESE visible
31 Jul 3.4 04:31:39 10° NNW 04:35:10 34° W 04:38:41 10° SSW visible
